FW7345 Weather Reports


Display with metric or nautical units.
time (UTC)temp
F
wind
direction
speed
MPH
gust
MPH
rain 1hr
in
rain 24hr
in
rain mn
in
humidity
%
barometer
mb
20260507114556 0 0.0 0.0 0.00 0.00 0.00 1014.5
20260507113055 0 0.0 0.0 0.00 0.00 0.00 1014.6
20260507111551 0 0.0 0.0 0.00 0.00 0.00 1014.0
20260507110054 0 1.0 4.0 0.00 0.00 0.00 1013.8
20260507104558 66 4 0.0 4.0 0.00 0.00 0.00 92 1014.2
20260507103052 65 10 0.0 4.0 0.00 0.00 0.00 92 1014.1
20260507101553 65 355 1.0 5.0 0.00 0.00 0.00 92 1013.9
20260507100054 65 0 0.0 3.0 0.00 0.00 0.00 92 1013.9
20260507094552 65 360 2.0 5.0 0.00 0.00 0.00 92 1013.6
20260507093058 65 29 1.0 4.0 0.00 0.00 0.00 92 1013.5
20260507091559 65 345 2.0 5.0 0.00 0.00 0.00 92 1013.2
20260507090053 65 8 2.0 7.0 0.00 0.00 0.00 91 1013.3
20260507084551 65 55 2.0 7.0 0.00 0.00 0.00 91 1013.1
20260507083049 65 349 2.0 7.0 0.00 0.00 0.00 90 1013.4
20260507081550 65 1 1.0 6.0 0.00 0.00 0.00 90 1013.6
20260507080050 65 8 2.0 5.0 0.00 0.00 0.00 90 1013.4
20260507074552 66 57 3.0 7.0 0.00 0.00 0.00 89 1013.4
20260507073057 66 5 3.0 9.0 0.00 0.00 0.00 89 1013.6
20260507071553 66 21 3.0 9.0 0.00 0.00 0.00 89 1013.7
20260507070058 66 35 1.0 6.0 0.00 0.00 0.00 89 1013.9
20260507064553 66 354 1.0 8.0 0.00 0.00 0.00 89 1013.9
20260507063053 66 333 3.0 7.0 0.00 0.00 0.00 89 1013.7
20260507061552 66 10 3.0 8.0 0.00 0.00 0.00 89 1013.5
20260507054602 67 355 3.0 9.0 0.00 0.00 0.00 89 1013.2
20260507053058 67 330 2.0 7.0 0.00 0.00 0.00 89 1013.5
20260507051552 68 15 4.0 8.0 0.00 0.00 0.00 88 1013.2
20260507050052 68 305 4.0 8.0 0.00 0.00 0.00 88 1013.2
20260507044600 68 20 3.0 8.0 0.00 0.00 0.00 88 1013.3
20260507043058 68 18 3.0 7.0 0.00 0.00 0.00 88 1013.4
20260507041552 69 34 2.0 7.0 0.00 0.00 0.00 87 1013.2
20260507040055 69 354 5.0 12.0 0.00 0.00 0.00 86 1013.1
20260507034608 69 321 2.0 9.0 0.00 0.00 0.00 86 1013.1
20260507033056 70 295 1.0 7.0 0.00 0.00 0.00 86 1013.0
20260507031550 71 339 2.0 6.0 0.00 0.00 0.00 85 1012.7
20260507030100 71 4 3.0 7.0 0.00 0.00 0.00 86 1012.3
20260507024558 71 0 3.0 10.0 0.00 0.00 0.00 85 1012.0
20260507023046 72 39 2.0 9.0 0.00 0.00 0.00 86 1011.8
20260507021551 72 11 3.0 7.0 0.00 0.00 0.00 85 1011.5
20260507020052 73 39 2.0 7.0 0.00 0.00 0.00 86 1011.0
20260507014554 73 4 4.0 7.0 0.00 0.00 0.00 85 1011.0
20260507013102 74 323 3.0 9.0 0.00 0.00 0.00 86 1010.7
20260507011555 74 121 1.0 4.0 0.00 0.00 0.00 87 1010.6
20260507010053 74 0 0.0 3.0 0.00 0.00 0.00 86 1010.4
20260507004553 74 333 1.0 4.0 0.00 0.00 0.00 86 1010.3
20260507003050 75 12 3.0 7.0 0.00 0.00 0.00 85 1009.9
20260507001548 78 329 1.0 7.0 0.00 0.00 0.00 83 1009.7
20260507000055 84 216 1.0 4.0 0.00 0.00 0.00 87 1009.3
20260506234556 86 148 0.0 1.0 0.00 0.00 0.00 83 1008.9
20260506233055 87 0 0.0 0.0 0.00 0.00 0.00 82 1008.8
20260506231551 88 0 0.0 0.0 0.00 0.00 0.00 80 1008.6
20260506230055 88 148 0.0 0.0 0.00 0.00 0.00 81 1008.5
20260506224602 88 0 0.0 3.0 0.00 0.00 0.00 80 1008.4
20260506223051 89 196 0.0 1.0 0.00 0.00 0.00 78 1008.5
20260506221554 89 0 0.0 2.0 0.00 0.00 0.00 78 1008.4
20260506220057 89 209 0.0 7.0 0.00 0.00 0.00 77 1008.1
20260506214606 90 225 0.0 2.0 0.00 0.00 0.00 77 1008.2
20260506213050 88 0 1.0 5.0 0.00 0.00 0.00 79 1008.2
20260506211550 88 0 0.0 5.0 0.00 0.00 0.00 79 1008.4
20260506210053 88 133 1.0 3.0 0.00 0.00 0.00 79 1008.6
20260506204610 87 0 1.0 6.0 0.00 0.00 0.00 80 1008.9
20260506203052 87 109 1.0 7.0 0.00 0.00 0.00 80 1008.9
20260506201552 87 199 1.0 4.0 0.00 0.00 0.00 82 1009.1
20260506200054 86 200 1.0 5.0 0.00 0.00 0.00 83 1009.1
20260506194603 85 186 2.0 9.0 0.00 0.00 0.00 84 1009.2
20260506193054 86 0 0.0 4.0 0.00 0.00 0.00 82 1009.3
20260506191555 86 186 1.0 5.0 0.00 0.00 0.00 82 1009.5
20260506190051 86 142 1.0 7.0 0.00 0.00 0.00 84 1009.6
20260506184556 85 133 2.0 7.0 0.00 0.00 0.00 85 1009.8
20260506183056 85 191 2.0 7.0 0.00 0.00 0.00 84 1009.9
20260506181552 85 169 1.0 7.0 0.00 0.00 0.00 84 1010.3
20260506180054 86 131 2.0 5.0 0.00 0.00 0.00 83 1010.5
20260506174553 84 124 0.0 3.0 0.00 0.00 0.00 86 1010.8
20260506173053 83 194 1.0 5.0 0.00 0.00 0.00 87 1011.0
20260506171556 82 171 0.0 4.0 0.00 0.00 0.00 91 1011.2
20260506170055 81 122 0.0 4.0 0.00 0.00 0.00 91 1011.3
20260506164550 80 0 0.0 4.0 0.00 0.00 0.00 93 1011.2
20260506163105 80 152 2.0 4.0 0.00 0.00 0.00 93 1011.2
20260506161604 79 205 1.0 6.0 0.00 0.00 0.00 94 1010.9
20260506160055 80 113 1.0 5.0 0.00 0.00 0.00 92 1010.8
20260506154608 79 103 1.0 6.0 0.00 0.00 0.00 93 1010.8
20260506153049 80 241 2.0 5.0 0.00 0.00 0.00 93 1010.9
20260506151548 79 180 1.0 4.0 0.00 0.00 0.00 93 1010.4
20260506150052 79 160 0.0 4.0 0.00 0.00 0.00 94 1010.2
20260506144601 78 149 1.0 3.0 0.00 0.00 0.00 95 1010.1
20260506143050 78 162 1.0 5.0 0.00 0.00 0.00 96 1009.7
20260506141559 77 146 2.0 6.0 0.00 0.00 0.00 98 1009.5
20260506140104 0 0.0 0.0 0.00 0.00 0.00 1009.7
20260506134552 0 0.0 0.0 0.00 0.00 0.00 1009.8
20260506133102 0 0.0 0.0 0.00 0.00 0.00 1009.9
20260506131551 0 0.0 0.0 0.00 0.00 0.00 1010.0
20260506130053 0 0.0 0.0 0.00 0.00 0.00 1010.0
20260506124557 0 0.0 0.0 0.00 0.00 0.00 1010.0
20260506123056 0 0.0 0.0 0.00 0.00 0.00 1009.8
20260506121553 0 0.0 0.0 0.00 0.00 0.00 1009.6
20260506120053 0 0.0 0.0 0.00 0.00 0.00 1009.5